Wind_Speed
119 118 119 118 117 112 102 98 103 100 101 109 107 101 97 91 87 82 81 77 78 74 72 70 70 68 62 59 55 52 50 44 42 43 45 35 34 38 37 30 29 28 25 22 30 36 36 36 37
119 119 122 122 125 119 106 107 105 108 113 111 111 105 103 96 91 90 89 88 82 80 78 78 80 75 67 63 59 57 56 47 43 41 42 42 38 36 38 32 27 25 26 22 24 33 34 37 39
121 123 126 128 126 121 109 114 115 117 121 118 117 114 108 100 99 95 93 90 92 89 84 83 82 82 69 65 65 60 57 54 46 43 41 43 41 35 37 35 30 26 27 24 21 28 33 36 38
131 130 128 129 121 117 116 116 116 123 121 121 121 121 111 107 107 105 101 94 93 94 90 89 84 84 73 67 66 62 58 55 51 47 45 43 46 39 36 37 33 31 22 20 20 24 31 38 39
138 142 146 130 130 124 120 116 117 120 122 125 129 123 119 111 111 112 107 99 96 96 97 93 88 81 76 70 68 66 63 57 56 51 49 46 45 46 37 36 35 32 24 22 21 23 27 35 38
135 137 136 141 138 132 130 130 128 121 125 122 130 126 118 121 116 114 111 111 99 96 92 87 90 85 80 77 69 66 66 61 58 57 54 48 48 45 39 40 36 34 28 23 21 21 24 31 36
127 132 135 138 137 137 129 140 141 135 128 128 129 130 120 118 124 118 106 110 103 93 96 89 87 86 82 80 72 65 64 64 60 59 58 57 51 47 47 41 37 35 28 25 24 22 23 28 32
117 129 129 130 133 140 136 138 147 153 139 141 136 127 125 128 131 124 119 108 107 104 98 98 87 86 83 81 78 73 66 65 65 62 62 59 55 51 46 43 41 39 30 28 24 26 25 25 29
108 113 117 119 132 138 134 141 145 144 147 142 143 139 134 132 135 131 127 118 116 108 107 103 93 90 90 87 81 73 66 65 61 64 68 64 59 57 49 51 49 40 38 40 31 27 24 26 31
114 116 108 115 121 134 132 134 138 143 147 144 149 136 143 144 137 140 130 124 118 118 109 109 102 95 93 87 81 75 69 66 64 63 66 67 67 64 60 49 42 44 42 43 34 29 28 27 28
118 120 125 119 123 131 133 132 137 138 139 140 142 139 146 147 148 140 137 131 129 121 118 109 109 97 95 93 88 83 78 71 68 69 67 70 69 50 45 50 55 56 52 43 44 36 32 31 30
126 130 126 124 122 122 128 125 124 124 124 135 139 138 144 147 150 152 151 147 135 122 126 119 112 106 103 100 92 89 86 80 78 75 75 77 79 72 73 70 67 62 57 51 46 44 40 36 32
129 128 130 127 119 117 126 128 120 122 108 121 123 128 135 139 148 149 152 149 144 134 128 125 120 113 108 103 101 95 97 91 88 84 82 79 77 78 80 73 68 66 63 59 51 49 47 40 38
127 126 125 125 126 124 123 123 119 115 116 119 122 121 126 131 138 139 142 145 143 134 134 129 125 120 115 107 105 101 98 94 96 94 89 83 79 70 66 76 64 66 70 66 57 50 53 49 42
118 119 119 118 122 119 122 119 114 110 117 119 124 125 125 127 127 132 136 135 138 135 133 135 131 127 123 114 112 104 101 102 101 96 95 88 79 59 60 74 74 78 81 74 63 56 57 54 50
110 111 109 112 118 112 111 107 106 111 107 115 116 124 131 128 131 129 133 138 139 139 133 131 133 131 125 120 115 109 100 100 102 100 96 93 88 73 71 73 82 83 87 78 69 60 59 58 57
104 104 104 99 109 101 100 94 94 100 99 105 113 121 126 132 131 128 128 133 135 132 132 125 127 131 128 123 119 114 103 103 102 99 94 96 91 86 84 82 82 85 90 86 75 64 61 61 61
91 93 91 89 94 91 85 87 87 87 91 91 102 114 117 126 130 130 129 132 132 135 135 131 128 125 124 125 122 117 109 105 106 99 93 94 92 93 89 90 96 94 91 84 75 69 63 62 65
80 76 76 76 83 73 81 78 84 78 85 86 93 102 111 114 122 129 131 131 132 131 134 129 126 126 129 129 126 121 113 107 109 104 99 95 92 93 95 98 97 94 92 89 80 72 66 65 66
65 63 62 67 73 66 67 68 77 68 77 82 87 93 100 107 118 126 130 130 133 130 124 130 126 121 126 125 124 127 121 113 111 111 100 98 98 92 94 94 96 98 93 89 77 76 72 72 71
65 54 56 55 64 63 59 59 64 61 67 73 79 86 93 99 108 120 128 129 133 133 122 125 127 125 124 122 123 124 125 121 114 111 107 103 100 97 93 94 96 99 94 87 83 79 77 77 77
58 55 51 54 52 57 51 47 56 52 62 65 72 77 86 93 100 110 121 126 132 134 124 119 125 126 124 124 124 122 123 126 122 112 111 105 101 100 100 98 95 92 89 92 88 86 82 82 80
52 51 48 50 47 45 51 39 50 46 57 57 67 72 79 86 94 104 116 120 129 131 127 119 124 127 126 124 122 123 127 127 125 120 111 107 103 100 99 101 102 100 98 95 92 89 86 84 84
43 45 46 46 43 42 36 43 44 43 48 53 60 68 73 81 88 96 107 117 125 131 131 124 122 124 127 129 127 124 128 132 128 126 116 110 106 107 102 100 102 103 101 98 95 92 91 89 87
40 40 46 43 38 36 33 37 39 41 41 45 50 60 69 74 85 89 100 113 121 123 127 124 122 121 125 126 127 125 126 129 128 128 127 120 111 112 109 106 106 107 109 107 103 98 95 95 93
39 36 35 43 37 34 30 36 35 38 38 42 47 54 62 69 78 88 96 106 115 118 123 123 120 123 124 127 127 126 125 126 126 127 126 127 120 112 109 109 106 111 114 112 109 105 102 99 96
39 36 34 34 33 34 29 30 34 33 34 37 42 48 57 65 74 85 93 99 109 112 118 118 119 122 123 124 128 127 125 121 122 123 124 123 124 119 114 112 108 108 109 114 112 107 106 103 100
36 36 35 27 30 29 27 26 27 29 29 30 37 43 51 62 71 79 88 93 100 105 111 115 115 118 123 121 127 129 128 126 123 123 125 124 120 120 120 120 112 110 108 108 113 112 112 107 103
33 35 35 30 28 25 22 24 25 24 24 29 34 40 46 56 66 74 81 87 92 98 104 106 112 116 123 123 126 130 131 129 124 125 125 124 121 119 121 118 116 114 109 109 118 115 114 111 109
30 32 30 26 26 25 21 21 21 20 23 28 31 37 43 51 60 69 74 83 86 89 95 98 106 110 118 123 124 128 133 132 128 124 125 124 122 117 120 117 118 119 119 117 108 115 116 110 107
Wind_Direction
251 253 253 255 254 256 251 254 253 253 251 254 255 255 255 256 253 253 254 256 256 257 257 261 265 268 263 265 267 273 274 275 280 283 285 289 294 296 297 305 317 335 319 294 252 235 234 239 244
249 251 253 253 254 253 253 252 253 251 252 253 253 255 255 254 254 253 256 255 256 257 258 259 264 267 262 261 265 270 272 272 273 278 283 286 287 293 291 296 304 324 329 312 261 241 233 238 245
249 247 249 252 252 256 250 250 251 251 252 254 249 253 253 253 252 251 252 255 257 257 258 261 262 266 260 260 262 265 266 270 269 272 278 282 286 289 290 290 297 310 324 318 289 253 239 240 246
256 253 252 248 248 251 247 246 249 251 249 250 250 247 253 253 250 250 249 253 254 255 257 261 261 264 260 259 260 262 262 265 267 266 271 277 284 286 286 284 291 299 313 317 303 274 248 244 246
258 257 254 254 250 249 248 242 244 245 248 249 249 249 250 251 249 248 248 248 252 255 255 259 261 260 260 257 259 260 262 263 264 267 268 271 278 282 284 287 283 290 294 312 313 287 271 257 252
258 258 257 259 255 256 250 251 245 245 241 243 246 247 249 248 249 247 248 247 251 252 254 256 255 258 259 258 257 258 259 262 262 265 269 268 271 278 277 283 280 279 282 295 303 305 282 268 261
256 256 256 255 255 255 253 253 251 248 241 244 245 245 250 247 250 249 249 248 250 249 250 251 253 254 256 254 254 257 258 258 261 263 266 270 268 275 275 276 277 269 271 282 295 296 291 281 269
261 257 255 257 257 254 249 251 250 247 244 249 249 248 247 247 249 249 250 249 245 246 250 249 249 252 250 252 252 252 255 257 258 262 264 266 269 274 271 267 269 265 263 275 284 291 289 282 274
264 262 258 257 254 253 249 252 252 252 251 247 249 248 246 244 244 249 248 247 245 246 247 247 247 248 250 246 249 251 249 252 254 259 263 265 267 268 268 268 272 264 266 270 277 279 280 285 274
270 268 268 262 259 255 249 250 252 253 251 251 248 247 245 245 242 243 245 247 245 246 247 247 243 245 246 248 244 247 245 248 253 256 260 263 267 266 265 262 258 265 267 267 274 272 273 276 277
267 266 263 261 260 258 257 254 253 250 251 252 249 247 243 244 244 246 243 246 247 245 245 245 241 244 244 245 242 247 250 245 251 253 256 259 262 258 253 256 267 267 270 269 271 266 268 272 273
268 270 268 263 263 261 259 256 254 257 254 252 252 249 244 240 242 244 247 246 244 240 245 244 241 242 244 244 241 240 245 248 246 248 254 258 263 264 263 266 267 267 265 268 269 265 264 262 266
270 268 271 272 267 266 259 256 253 252 250 247 250 251 247 244 242 242 241 242 242 238 239 241 243 241 240 240 240 240 242 242 245 245 250 255 257 262 265 266 266 261 267 267 267 266 260 259 261
269 269 270 271 269 266 264 261 256 244 247 244 246 249 246 244 239 238 240 241 241 237 237 236 240 239 239 239 239 237 240 242 246 247 247 249 254 257 261 263 254 253 267 265 265 265 261 258 258
272 271 270 270 268 266 264 262 261 255 244 244 241 239 242 242 241 239 237 237 238 236 233 237 235 237 237 235 237 235 238 239 243 244 246 245 248 245 236 250 250 257 263 263 264 263 259 257 258
272 273 272 270 270 268 263 260 259 255 247 247 243 239 234 237 238 236 237 236 235 236 236 232 233 233 234 234 236 236 232 236 239 243 243 244 245 239 237 240 250 256 263 264 263 261 260 258 255
272 273 273 271 269 267 266 262 257 256 249 244 241 239 235 232 234 235 234 235 233 232 232 231 233 232 235 234 232 234 232 231 235 239 239 243 241 240 235 238 239 248 259 264 262 255 256 257 255
271 273 273 270 266 268 264 264 258 254 252 243 240 237 235 233 230 232 232 233 232 229 229 231 230 232 232 231 230 231 229 230 233 234 235 239 240 240 233 232 247 252 254 259 258 255 252 254 256
277 274 272 271 269 264 263 260 256 251 248 242 239 236 235 229 229 229 228 230 233 227 227 227 228 231 231 232 230 231 228 229 231 231 234 234 237 238 237 240 247 250 253 256 255 252 249 253 252
283 277 275 269 269 268 261 258 257 249 245 241 236 234 234 231 226 226 224 226 230 229 223 224 225 227 228 228 228 228 225 225 230 230 230 232 234 233 238 239 241 245 251 254 250 251 248 249 249
287 285 278 272 274 268 262 262 257 250 244 239 236 234 232 229 228 225 223 225 225 227 223 220 222 223 227 227 225 225 226 222 225 228 229 231 234 235 234 238 238 246 248 248 249 249 246 246 249
288 289 282 278 273 275 268 263 258 251 244 236 235 231 231 229 225 224 224 224 225 225 222 218 219 222 223 226 226 225 227 225 223 226 227 228 229 233 233 237 241 242 244 246 246 249 246 245 247
290 288 286 282 279 275 272 270 261 248 244 236 232 228 228 228 227 222 222 223 223 224 224 218 218 220 220 220 225 226 225 225 224 223 222 224 225 227 232 234 235 238 241 243 244 246 246 245 244
292 291 289 287 284 278 273 265 261 255 244 239 232 228 226 224 224 224 222 222 221 222 224 219 216 216 219 221 224 225 225 224 223 224 223 222 224 226 227 232 236 236 238 241 243 244 244 244 243
297 296 294 290 284 279 277 267 263 255 245 238 232 229 227 223 220 220 221 222 222 222 223 219 216 216 219 220 221 223 223 224 224 223 225 225 222 226 226 227 232 236 239 239 239 241 240 243 243
300 297 290 289 291 287 275 268 262 255 245 233 225 224 223 223 221 218 218 219 222 222 221 220 214 216 218 220 219 222 222 224 226 228 227 227 224 222 224 227 230 235 238 239 240 241 241 243 244
302 303 297 289 289 284 278 266 262 256 248 238 229 222 219 219 218 218 219 219 221 222 222 220 217 214 215 219 218 221 223 224 226 226 227 227 227 226 225 227 229 234 237 239 238 239 242 243 243
304 304 297 290 288 283 282 273 266 258 249 240 232 223 218 216 217 216 218 219 221 221 221 221 218 212 213 215 219 218 222 223 223 226 227 225 224 228 230 231 230 233 237 238 239 240 241 242 243
306 306 302 299 293 286 279 271 264 259 251 239 231 220 216 215 214 215 217 217 219 221 221 222 220 214 212 215 217 218 219 223 223 224 226 227 227 226 229 230 233 232 233 234 243 244 242 243 244
303 299 294 291 288 286 279 266 263 259 246 239 230 219 214 212 213 213 215 217 217 219 221 221 221 216 213 214 217 217 218 221 222 224 226 226 227 224 225 226 227 229 231 234 237 241 244 244 243
Height
10669 10672 10674 10675 10679 10697 10726 10741 10737 10735 10723 10710 10714 10726 10740 10750 10761 10761 10768 10766 10766 10769 10775 10778 10781 10789 10793 10795 10797 10799 10803 10805 10805 10804 10805 10803 10801 10800 10799 10797 10795 10790 10786 10783 10784 10787 10792 10795 10796
10649 10647 10649 10649 10657 10676 10717 10717 10715 10705 10694 10699 10698 10709 10723 10736 10745 10749 10749 10750 10753 10757 10760 10766 10768 10776 10782 10784 10788 10791 10794 10798 10798 10798 10799 10798 10797 10796 10794 10793 10792 10788 10785 10782 10781 10784 10788 10791 10792
10626 10622 10624 10626 10641 10663 10691 10687 10686 10682 10669 10682 10683 10683 10699 10726 10721 10729 10728 10734 10739 10741 10749 10753 10757 10762 10771 10774 10778 10782 10785 10789 10791 10792 10792 10793 10792 10791 10790 10790 10788 10786 10784 10781 10780 10782 10784 10786 10789
10601 10596 10598 10603 10623 10650 10653 10660 10655 10658 10647 10660 10658 10662 10681 10697 10702 10707 10712 10717 10723 10728 10733 10740 10746 10751 10759 10763 10767 10772 10776 10779 10783 10785 10785 10786 10787 10787 10785 10785 10785 10783 10782 10779 10779 10779 10781 10782 10785
10566 10568 10568 10587 10606 10624 10620 10629 10626 10634 10634 10634 10625 10652 10659 10676 10681 10685 10692 10700 10708 10714 10721 10729 10734 10740 10747 10752 10755 10761 10766 10771 10773 10777 10778 10779 10780 10781 10781 10780 10780 10780 10779 10778 10776 10777 10778 10778 10780
10534 10536 10542 10560 10575 10591 10599 10593 10591 10607 10600 10605 10601 10617 10638 10649 10655 10660 10675 10686 10695 10702 10707 10716 10722 10727 10734 10740 10744 10749 10755 10761 10764 10767 10770 10772 10772 10774 10775 10775 10775 10776 10776 10775 10773 10773 10773 10773 10774
10499 10497 10514 10520 10543 10560 10572 10538 10556 10559 10580 10599 10569 10592 10622 10634 10623 10637 10658 10669 10679 10686 10692 10701 10708 10713 10720 10727 10734 10738 10744 10750 10755 10758 10761 10764 10766 10767 10769 10769 10769 10770 10771 10770 10770 10769 10769 10768 10769
10471 10466 10485 10495 10509 10515 10512 10504 10512 10515 10554 10560 10555 10585 10602 10600 10598 10614 10633 10644 10658 10666 10673 10682 10692 10699 10706 10714 10720 10726 10733 10738 10744 10749 10752 10754 10758 10759 10760 10763 10762 10764 10766 10767 10765 10765 10764 10764 10764
10441 10434 10451 10469 10455 10457 10475 10478 10477 10488 10520 10525 10536 10558 10572 10568 10574 10581 10598 10615 10631 10646 10650 10660 10672 10683 10691 10700 10707 10715 10723 10727 10734 10739 10742 10745 10748 10749 10750 10754 10756 10757 10759 10761 10762 10762 10760 10760 10760
10409 10403 10421 10412 10414 10414 10436 10445 10438 10449 10470 10503 10489 10513 10525 10541 10546 10553 10567 10586 10602 10614 10631 10636 10649 10663 10674 10683 10693 10702 10711 10718 10722 10729 10731 10736 10738 10739 10742 10744 10746 10750 10752 10755 10757 10758 10757 10755 10756
10380 10374 10369 10384 10379 10371 10386 10413 10398 10420 10449 10461 10449 10481 10492 10510 10520 10528 10535 10564 10577 10588 10599 10617 10626 10640 10653 10663 10676 10688 10697 10705 10710 10716 10721 10722 10724 10726 10734 10735 10738 10739 10742 10748 10751 10752 10753 10752 10751
10349 10335 10332 10347 10343 10343 10348 10368 10382 10383 10441 10406 10414 10438 10447 10470 10485 10493 10505 10526 10549 10563 10575 10590 10605 10621 10633 10641 10658 10670 10680 10691 10697 10703 10707 10707 10708 10715 10723 10724 10726 10729 10732 10737 10742 10745 10747 10747 10746
10311 10311 10306 10303 10309 10307 10303 10312 10340 10364 10380 10373 10376 10388 10409 10424 10447 10458 10467 10481 10514 10539 10552 10564 10576 10591 10609 10621 10635 10653 10663 10675 10681 10687 10693 10694 10697 10700 10708 10711 10714 10717 10719 10726 10732 10735 10738 10739 10739
10284 10283 10279 10275 10271 10263 10262 10267 10282 10328 10327 10331 10342 10354 10366 10381 10403 10417 10433 10456 10470 10510 10525 10537 10548 10562 10584 10597 10613 10629 10644 10659 10666 10671 10676 10684 10686 10689 10692 10699 10702 10703 10709 10714 10720 10724 10727 10731 10731
10254 10249 10246 10245 10226 10227 10221 10229 10251 10266 10281 10293 10299 10315 10327 10343 10356 10385 10402 10422 10438 10468 10495 10506 10521 10532 10554 10573 10587 10607 10627 10639 10648 10652 10658 10668 10676 10683 10676 10687 10687 10689 10696 10702 10709 10714 10716 10719 10722
10215 10209 10210 10208 10184 10188 10179 10201 10214 10214 10240 10249 10260 10270 10287 10301 10316 10341 10364 10383 10406 10428 10459 10480 10493 10507 10530 10548 10569 10581 10606 10618 10628 10634 10639 10651 10663 10671 10667 10668 10675 10674 10680 10689 10696 10701 10704 10708 10712
10181 10177 10171 10173 10148 10152 10148 10163 10176 10175 10191 10209 10216 10226 10244 10264 10279 10308 10332 10342 10371 10393 10423 10451 10468 10483 10504 10526 10544 10562 10583 10597 10608 10614 10621 10632 10646 10651 10653 10652 10657 10661 10665 10675 10682 10689 10692 10698 10701
10152 10145 10144 10138 10123 10120 10131 10128 10140 10147 10150 10171 10177 10186 10207 10227 10251 10272 10295 10306 10325 10360 10386 10413 10440 10459 10476 10500 10517 10540 10559 10577 10591 10595 10603 10613 10622 10635 10633 10631 10638 10649 10652 10660 10667 10674 10680 10685 10690
10124 10123 10117 10106 10090 10106 10095 10102 10100 10120 10118 10132 10145 10157 10172 10195 10221 10229 10255 10277 10288 10319 10352 10384 10414 10434 10449 10472 10495 10519 10536 10555 10568 10578 10587 10595 10601 10612 10615 10614 10621 10631 10639 10646 10652 10660 10667 10674 10676
10099 10098 10091 10081 10069 10076 10075 10079 10072 10098 10097 10103 10115 10129 10147 10168 10177 10196 10218 10242 10255 10281 10323 10353 10380 10403 10419 10442 10468 10489 10507 10530 10542 10555 10564 10572 10584 10592 10597 10600 10604 10616 10623 10630 10638 10647 10654 10658 10662
10067 10075 10067 10065 10050 10049 10055 10059 10058 10070 10073 10082 10091 10105 10121 10138 10156 10169 10189 10212 10228 10248 10291 10322 10350 10373 10393 10419 10438 10460 10477 10502 10515 10534 10546 10555 10563 10575 10582 10586 10589 10596 10610 10616 10622 10630 10638 10641 10647
10051 10049 10049 10041 10041 10032 10031 10042 10038 10050 10048 10060 10067 10082 10095 10113 10131 10149 10166 10185 10203 10225 10259 10294 10319 10340 10366 10391 10409 10432 10455 10478 10499 10511 10522 10534 10543 10550 10559 10567 10575 10579 10588 10599 10605 10610 10619 10626 10631
10038 10030 10029 10023 10023 10024 10014 10029 10020 10030 10030 10041 10047 10059 10071 10088 10107 10122 10137 10163 10181 10203 10233 10270 10292 10310 10337 10361 10382 10405 10426 10450 10468 10484 10497 10510 10519 10528 10537 10544 10551 10561 10566 10576 10586 10594 10600 10607 10614
10026 10017 10013 10009 10007 10006 10010 10006 10007 10012 10018 10023 10033 10041 10053 10067 10085 10103 10119 10136 10150 10172 10196 10236 10264 10286 10308 10333 10353 10377 10399 10417 10438 10457 10472 10490 10499 10508 10517 10523 10528 10538 10547 10557 10565 10572 10580 10587 10594
10013 10008 9998 9995 9995 9995 9996 9994 9994 9995 10003 10010 10019 10029 10039 10051 10064 10080 10097 10112 10129 10154 10176 10212 10245 10270 10288 10310 10332 10352 10374 10393 10411 10429 10448 10466 10473 10484 10496 10501 10507 10514 10527 10533 10541 10551 10560 10567 10574
10002 9999 9994 9982 9984 9982 9985 9981 9983 9984 9990 9994 9999 10011 10025 10039 10052 10063 10076 10094 10113 10135 10157 10187 10224 10247 10265 10285 10311 10329 10348 10371 10390 10408 10428 10443 10450 10461 10470 10478 10488 10492 10502 10509 10520 10530 10540 10550 10558
9989 9986 9983 9978 9976 9972 9974 9974 9973 9975 9980 9985 9991 9999 10010 10023 10035 10049 10061 10078 10095 10116 10136 10165 10196 10221 10242 10264 10288 10305 10325 10349 10369 10387 10403 10417 10430 10440 10447 10458 10469 10471 10474 10489 10497 10509 10521 10531 10540
9981 9977 9972 9972 9968 9966 9967 9966 9966 9967 9972 9978 9982 9989 9998 10009 10022 10035 10049 10064 10080 10099 10119 10143 10170 10199 10221 10241 10260 10284 10301 10319 10341 10358 10374 10393 10408 10418 10426 10439 10453 10451 10454 10463 10473 10487 10497 10510 10520
9973 9968 9964 9963 9961 9960 9960 9958 9958 9961 9965 9967 9971 9978 9987 9997 10009 10024 10039 10054 10068 10085 10106 10128 10150 10176 10200 10218 10235 10258 10276 10296 10318 10332 10345 10365 10383 10394 10403 10419 10431 10431 10435 10440 10449 10467 10476 10491 10500
9968 9963 9960 9958 9955 9953 9953 9953 9953 9955 9956 9958 9964 9970 9978 9988 10000 10012 10027 10042 10058 10074 10094 10113 10133 10159 10179 10195 10213 10232 10252 10270 10294 10312 10324 10340 10357 10369 10380 10395 10409 10412 10416 10423 10432 10436 10456 10469 10478